"Sample Date","Sample Time","Sample Value","Units","Flow Rate","Sample Interval","Number Channels","Micron Size 0","Counts/Channel 0","Micron Size 1","Counts/Channel 1","Micron Size 2","Counts/Channel 2","Micron Size 3","Counts/Channel 3","Micron Size 4","Counts/Channel 4","Micron Size 5","Counts/Channel 5","Micron Size 6","Counts/Channel 6","Micron Size 7","Counts/Channel 7","Micron Size 8","Counts/Channel 8","Micron Size 9","Counts/Channel 9","Micron Size 10","Counts/Channel 10","Micron Size 11","Counts/Channel 11","Micron Size 12","Counts/Channel 12","Micron Size 13","Counts/Channel 13","Micron Size 14","Counts/Channel 14","Micron Size 15","Counts/Channel 15","Micron Size 16","Counts/Channel 16","Micron Size 17","Counts/Channel 17","Micron Size 18","Counts/Channel 18","Micron Size 19","Counts/Channel 19","Micron Size 20","Counts/Channel 20","Micron Size 21","Counts/Channel 21","Micron Size 22","Counts/Channel 22","Micron Size 23","Counts/Channel 23","Micron Size 24","Counts/Channel 24","Micron Size 25","Counts/Channel 25","Micron Size 26","Counts/Channel 26","Micron Size 27","Counts/Channel 27","Micron Size 28","Counts/Channel 28","Micron Size 29","Counts/Channel 29","Micron Size 30","Counts/Channel 30","Micron Size 31","Counts/Channel 31"
"04/02/08","16:00:01",25658.000,"cc",28268.471,6.00,6,0.100,22876.000,0.200,1348.000,0.300,568.000,0.500,603.000,1.000,263.000,5.000,0
"04/02/08","16:00:07",25545.000,"cc",28296.570,6.00,6,0.100,22743.000,0.200,1313.000,0.300,580.000,0.500,662.000,1.000,247.000,5.000,0
"04/02/08","16:00:13",25551.000,"cc",28402.859,6.00,6,0.100,22882.000,0.200,1375.000,0.300,551.000,0.500,534.000,1.000,209.000,5.000,0
"04/02/08","16:00:19",25011.000,"cc",28390.145,6.00,6,0.100,22532.000,0.200,1261.000,0.300,462.000,0.500,555.000,1.000,201.000,5.000,0
"04/02/08","16:00:25",25179.000,"cc",28322.020,6.00,6,0.100,22748.000,0.200,1193.000,0.300,497.000,0.500,557.000,1.000,184.000,5.000,0
"04/02/08","16:00:31",24872.000,"cc",28349.684,6.00,6,0.100,22511.000,0.200,1220.000,0.300,484.000,0.500,507.000,1.000,150.000,5.000,0
"04/02/08","16:00:37",25113.000,"cc",28271.811,6.00,6,0.100,22616.000,0.200,1301.000,0.300,465.000,0.500,511.000,1.000,220.000,5.000,0
"04/02/08","16:00:43",25642.000,"cc",28272.875,6.00,6,0.100,23103.000,0.200,1258.000,0.300,515.000,0.500,541.000,1.000,225.000,5.000,0
"04/02/08","16:00:49",25731.000,"cc",28380.039,6.00,6,0.100,23049.000,0.200,1320.000,0.300,504.000,0.500,610.000,1.000,248.000,5.000,0
"04/02/08","16:00:55",25889.000,"cc",28326.815,6.00,6,0.100,23299.000,0.200,1313.000,0.300,479.000,0.500,558.000,1.000,240.000,5.000,0
"04/02/08","16:01:01",25471.000,"cc",28249.031,6.00,6,0.100,22829.000,0.200,1286.000,0.300,562.000,0.500,589.000,1.000,205.000,5.000,0
"04/02/08","16:01:07",25657.000,"cc",28255.639,6.00,6,0.100,22912.000,0.200,1305.000,0.300,590.000,0.500,600.000,1.000,250.000,5.000,0
"04/02/08","16:01:13",25478.000,"cc",28377.451,6.00,6,0.100,23028.000,0.200,1197.000,0.300,475.000,0.500,552.000,1.000,226.000,5.000,0
"04/02/08","16:01:19",25787.000,"cc",28271.815,6.00,6,0.100,23137.000,0.200,1308.000,0.300,514.000,0.500,589.000,1.000,239.000,5.000,0
"04/02/08","16:01:25",25627.000,"cc",28336.670,6.00,6,0.100,23086.000,0.200,1245.000,0.300,496.000,0.500,572.000,1.000,228.000,5.000,0
"04/02/08","16:01:31",25496.000,"cc",28337.549,6.00,6,0.100,22855.000,0.200,1263.000,0.300,570.000,0.500,585.000,1.000,223.000,5.000,0
"04/02/08","16:01:37",26055.000,"cc",28266.912,6.00,6,0.100,23285.000,0.200,1301.000,0.300,595.000,0.500,631.000,1.000,243.000,5.000,0
"04/02/08","16:01:43",26202.000,"cc",28228.756,6.00,6,0.100,23399.000,0.200,1337.000,0.300,601.000,0.500,662.000,1.000,203.000,5.000,0
"04/02/08","16:01:49",25501.000,"cc",28298.328,6.00,6,0.100,22780.000,0.200,1290.000,0.300,580.000,0.500,639.000,1.000,212.000,5.000,0
"04/02/08","16:01:55",25676.000,"cc",28336.606,6.00,6,0.100,22837.000,0.200,1397.000,0.300,592.000,0.500,607.000,1.000,243.000,5.000,0
"04/02/08","16:02:01",25791.000,"cc",28422.943,6.00,6,0.100,23177.000,0.200,1264.000,0.300,536.000,0.500,588.000,1.000,226.000,5.000,0
"04/02/08","16:02:07",25926.000,"cc",28311.773,6.00,6,0.100,23178.000,0.200,1313.000,0.300,565.000,0.500,631.000,1.000,239.000,5.000,0
"04/02/08","16:02:13",25707.000,"cc",28285.309,6.00,6,0.100,23120.000,0.200,1258.000,0.300,527.000,0.500,597.000,1.000,205.000,5.000,0
"04/02/08","16:02:19",26003.000,"cc",28372.713,6.00,6,0.100,23380.000,0.200,1275.000,0.300,557.000,0.500,595.000,1.000,196.000,5.000,0
"04/02/08","16:02:25",25675.000,"cc",28303.223,6.00,6,0.100,23184.000,0.200,1267.000,0.300,486.000,0.500,559.000,1.000,179.000,5.000,0
"04/02/08","16:02:31",25983.000,"cc",28256.014,6.00,6,0.100,23117.000,0.200,1357.000,0.300,609.000,0.500,658.000,1.000,242.000,5.000,0
"04/02/08","16:02:37",26372.000,"cc",28299.326,6.00,6,0.100,23529.000,0.200,1346.000,0.300,600.000,0.500,650.000,1.000,247.000,5.000,0
"04/02/08","16:02:43",25922.000,"cc",28391.553,6.00,6,0.100,23120.000,0.200,1346.000,0.300,560.000,0.500,657.000,1.000,239.000,5.000,0
"04/02/08","16:02:49",25862.000,"cc",28284.389,6.00,6,0.100,23084.000,0.200,1342.000,0.300,547.000,0.500,670.000,1.000,219.000,5.000,0
"04/02/08","16:02:55",26389.000,"cc",28354.889,6.00,6,0.100,23566.000,0.200,1370.000,0.300,576.000,0.500,659.000,1.000,218.000,5.000,0
"04/02/08","16:03:01",26171.000,"cc",28311.119,6.00,6,0.100,23244.000,0.200,1373.000,0.300,631.000,0.500,682.000,1.000,241.000,5.000,0
"04/02/08","16:03:07",26485.000,"cc",28403.305,6.00,6,0.100,23497.000,0.200,1398.000,0.300,633.000,0.500,685.000,1.000,272.000,5.000,0
"04/02/08","16:03:13",26190.000,"cc",28272.090,6.00,6,0.100,23355.000,0.200,1345.000,0.300,615.000,0.500,627.000,1.000,248.000,5.000,0
"04/02/08","16:03:19",25973.000,"cc",28241.371,6.00,6,0.100,23120.000,0.200,1348.000,0.300,624.000,0.500,636.000,1.000,245.000,5.000,0
"04/02/08","16:03:25",25551.000,"cc",28364.293,6.00,6,0.100,22676.000,0.200,1347.000,0.300,594.000,0.500,670.000,1.000,264.000,5.000,0
"04/02/08","16:03:31",25980.000,"cc",28316.541,6.00,6,0.100,23156.000,0.200,1369.000,0.300,616.000,0.500,615.000,1.000,224.000,5.000,0
"04/02/08","16:03:37",25173.000,"cc",28275.496,6.00,6,0.100,22475.000,0.200,1275.000,0.300,568.000,0.500,619.000,1.000,236.000,5.000,0
"04/02/08","16:03:43",25369.000,"cc",28231.500,6.00,6,0.100,22728.000,0.200,1276.000,0.300,537.000,0.500,590.000,1.000,238.000,5.000,0
"04/02/08","16:03:49",25956.000,"cc",28307.666,6.00,6,0.100,23197.000,0.200,1284.000,0.300,608.000,0.500,629.000,1.000,238.000,5.000,0
"04/02/08","16:03:55",25782.000,"cc",28350.063,6.00,6,0.100,23076.000,0.200,1303.000,0.300,579.000,0.500,615.000,1.000,209.000,5.000,0
"04/02/08","16:04:01",25504.000,"cc",28343.496,6.00,6,0.100,22871.000,0.200,1322.000,0.300,503.000,0.500,571.000,1.000,237.000,5.000,0
"04/02/08","16:04:07",25247.000,"cc",28348.701,6.00,6,0.100,22756.000,0.200,1270.000,0.300,485.000,0.500,552.000,1.000,184.000,5.000,0
"04/02/08","16:04:13",25247.000,"cc",28344.141,6.00,6,0.100,22586.000,0.200,1281.000,0.300,557.000,0.500,591.000,1.000,232.000,5.000,0
"04/02/08","16:04:19",25236.000,"cc",28270.371,6.00,6,0.100,22416.000,0.200,1347.000,0.300,584.000,0.500,651.000,1.000,238.000,5.000,0
"04/02/08","16:04:25",25307.000,"cc",28329.117,6.00,6,0.100,22587.000,0.200,1387.000,0.300,553.000,0.500,572.000,1.000,208.000,5.000,0
"04/02/08","16:04:31",25270.000,"cc",28352.789,6.00,6,0.100,22643.000,0.200,1296.000,0.300,545.000,0.500,591.000,1.000,195.000,5.000,0
"04/02/08","16:04:37",25457.000,"cc",28257.764,6.00,6,0.100,22756.000,0.200,1353.000,0.300,565.000,0.500,560.000,1.000,223.000,5.000,0
"04/02/08","16:04:43",25808.000,"cc",28283.563,6.00,6,0.100,22730.000,0.200,1411.000,0.300,644.000,0.500,755.000,1.000,268.000,5.000,0
"04/02/08","16:04:49",25167.000,"cc",28401.518,6.00,6,0.100,22341.000,0.200,1400.000,0.300,586.000,0.500,630.000,1.000,210.000,5.000,0
"04/02/08","16:04:55",25234.000,"cc",28372.748,6.00,6,0.100,22435.000,0.200,1323.000,0.300,614.000,0.500,623.000,1.000,239.000,5.000,0
"04/02/08","16:05:01",25572.000,"cc",28236.617,6.00,6,0.100,22677.000,0.200,1365.000,0.300,614.000,0.500,675.000,1.000,241.000,5.000,0
"04/02/08","16:05:07",25728.000,"cc",28277.920,6.00,6,0.100,22649.000,0.200,1520.000,0.300,623.000,0.500,701.000,1.000,235.000,5.000,0
"04/02/08","16:05:13",24990.000,"cc",28371.734,6.00,6,0.100,22382.000,0.200,1233.000,0.300,551.000,0.500,586.000,1.000,238.000,5.000,0
"04/02/08","16:05:19",25333.000,"cc",28265.690,6.00,6,0.100,22597.000,0.200,1313.000,0.300,557.000,0.500,640.000,1.000,224.000,5.000,2.000
"04/02/08","16:05:25",25022.000,"cc",28401.523,6.00,6,0.100,22553.000,0.200,1170.000,0.300,523.000,0.500,571.000,1.000,205.000,5.000,0
"04/02/08","16:05:31",24775.000,"cc",28316.561,6.00,6,0.100,22106.000,0.200,1284.000,0.300,572.000,0.500,619.000,1.000,194.000,5.000,0
"04/02/08","16:05:37",24624.000,"cc",28355.592,6.00,6,0.100,22242.000,0.200,1177.000,0.300,486.000,0.500,532.000,1.000,187.000,5.000,0
"04/02/08","16:05:43",24830.000,"cc",28320.447,6.00,6,0.100,22196.000,0.200,1279.000,0.300,564.000,0.500,571.000,1.000,220.000,5.000,0
"04/02/08","16:05:49",24722.000,"cc",28287.592,6.00,6,0.100,22025.000,0.200,1314.000,0.300,538.000,0.500,632.000,1.000,213.000,5.000,0
"04/02/08","16:05:55",24324.000,"cc",28286.406,6.00,6,0.100,21916.000,0.200,1209.000,0.300,482.000,0.500,506.000,1.000,211.000,5.000,0
"04/02/08","16:06:01",24467.000,"cc",28353.297,6.00,6,0.100,22128.000,0.200,1203.000,0.300,444.000,0.500,512.000,1.000,180.000,5.000,0
"04/02/08","16:06:07",24445.000,"cc",28228.014,6.00,6,0.100,21944.000,0.200,1230.000,0.300,544.000,0.500,541.000,1.000,186.000,5.000,0
"04/02/08","16:06:13",24562.000,"cc",28264.443,6.00,6,0.100,21962.000,0.200,1253.000,0.300,579.000,0.500,545.000,1.000,223.000,5.000,0
"04/02/08","16:06:19",25050.000,"cc",28339.291,6.00,6,0.100,22500.000,0.200,1292.000,0.300,525.000,0.500,537.000,1.000,196.000,5.000,0
"04/02/08","16:06:25",25154.000,"cc",28265.971,6.00,6,0.100,22406.000,0.200,1338.000,0.300,551.000,0.500,643.000,1.000,216.000,5.000,0
"04/02/08","16:06:31",25216.000,"cc",28341.777,6.00,6,0.100,22485.000,0.200,1386.000,0.300,541.000,0.500,584.000,1.000,220.000,5.000,0
"04/02/08","16:06:37",25553.000,"cc",28309.254,6.00,6,0.100,22902.000,0.200,1334.000,0.300,570.000,0.500,549.000,1.000,198.000,5.000,0
"04/02/08","16:06:43",25596.000,"cc",28294.029,6.00,6,0.100,22835.000,0.200,1323.000,0.300,587.000,0.500,618.000,1.000,233.000,5.000,0
"04/02/08","16:06:49",25630.000,"cc",28332.963,6.00,6,0.100,22787.000,0.200,1357.000,0.300,609.000,0.500,651.000,1.000,226.000,5.000,0
"04/02/08","16:06:55",25494.000,"cc",28267.133,6.00,6,0.100,22958.000,0.200,1259.000,0.300,510.000,0.500,565.000,1.000,202.000,5.000,0
"04/02/08","16:07:01",25439.000,"cc",28280.404,6.00,6,0.100,22687.000,0.200,1301.000,0.300,586.000,0.500,623.000,1.000,242.000,5.000,0
"04/02/08","16:07:07",25350.000,"cc",28444.871,6.00,6,0.100,22617.000,0.200,1344.000,0.300,542.000,0.500,619.000,1.000,228.000,5.000,0
"04/02/08","16:07:13",25451.000,"cc",28297.523,6.00,6,0.100,22825.000,0.200,1346.000,0.300,506.000,0.500,565.000,1.000,209.000,5.000,0
"04/02/08","16:07:19",25711.000,"cc",28242.172,6.00,6,0.100,22945.000,0.200,1304.000,0.300,586.000,0.500,657.000,1.000,219.000,5.000,0
"04/02/08","16:07:25",26029.000,"cc",28362.066,6.00,6,0.100,23245.000,0.200,1300.000,0.300,641.000,0.500,616.000,1.000,227.000,5.000,0
"04/02/08","16:07:31",25367.000,"cc",28424.147,6.00,6,0.100,22793.000,0.200,1272.000,0.300,523.000,0.500,569.000,1.000,210.000,5.000,0
"04/02/08","16:07:37",26044.000,"cc",28209.619,6.00,6,0.100,23202.000,0.200,1331.000,0.300,587.000,0.500,670.000,1.000,254.000,5.000,0
"04/02/08","16:07:43",26215.000,"cc",28307.631,6.00,6,0.100,23197.000,0.200,1418.000,0.300,655.000,0.500,673.000,1.000,272.000,5.000,0
"04/02/08","16:07:49",26175.000,"cc",28361.338,6.00,6,0.100,23274.000,0.200,1399.000,0.300,602.000,0.500,655.000,1.000,245.000,5.000,0
"04/02/08","16:07:55",26352.000,"cc",28284.703,6.00,6,0.100,23138.000,0.200,1535.000,0.300,658.000,0.500,760.000,1.000,261.000,5.000,0
"04/02/08","16:08:01",26239.000,"cc",28322.477,6.00,6,0.100,23303.000,0.200,1411.000,0.300,618.000,0.500,663.000,1.000,244.000,5.000,0
"04/02/08","16:08:07",26011.000,"cc",28372.500,6.00,6,0.100,23155.000,0.200,1382.000,0.300,611.000,0.500,628.000,1.000,235.000,5.000,0
"04/02/08","16:08:13",25858.000,"cc",28337.543,6.00,6,0.100,23015.000,0.200,1351.000,0.300,584.000,0.500,662.000,1.000,246.000,5.000,0
"04/02/08","16:08:19",26068.000,"cc",28359.277,6.00,6,0.100,23211.000,0.200,1393.000,0.300,578.000,0.500,646.000,1.000,240.000,5.000,0
"04/02/08","16:08:25",26177.000,"cc",28281.481,6.00,6,0.100,23173.000,0.200,1374.000,0.300,670.000,0.500,715.000,1.000,245.000,5.000,0
"04/02/08","16:08:31",26382.000,"cc",28289.879,6.00,6,0.100,23409.000,0.200,1363.000,0.300,690.000,0.500,644.000,1.000,276.000,5.000,0
"04/02/08","16:08:37",26087.000,"cc",28335.447,6.00,6,0.100,23146.000,0.200,1387.000,0.300,642.000,0.500,672.000,1.000,240.000,5.000,0
"04/02/08","16:08:43",26583.000,"cc",28355.459,6.00,6,0.100,23327.000,0.200,1564.000,0.300,666.000,0.500,767.000,1.000,259.000,5.000,0
"04/02/08","16:08:49",26406.000,"cc",28366.791,6.00,6,0.100,23536.000,0.200,1403.000,0.300,590.000,0.500,636.000,1.000,241.000,5.000,0
"04/02/08","16:08:55",26297.000,"cc",28321.111,6.00,6,0.100,23403.000,0.200,1379.000,0.300,614.000,0.500,664.000,1.000,237.000,5.000,0
"04/02/08","16:09:01",26799.000,"cc",28330.467,6.00,6,0.100,24043.000,0.200,1325.000,0.300,540.000,0.500,659.000,1.000,232.000,5.000,0
"04/02/08","16:09:07",26380.000,"cc",28275.982,6.00,6,0.100,23462.000,0.200,1433.000,0.300,638.000,0.500,604.000,1.000,243.000,5.000,0
"04/02/08","16:09:13",26787.000,"cc",28224.369,6.00,6,0.100,23699.000,0.200,1516.000,0.300,625.000,0.500,673.000,1.000,274.000,5.000,0
"04/02/08","16:09:19",26918.000,"cc",28325.951,6.00,6,0.100,23753.000,0.200,1471.000,0.300,697.000,0.500,751.000,1.000,246.000,5.000,0
"04/02/08","16:09:25",26210.000,"cc",28364.207,6.00,6,0.100,23347.000,0.200,1376.000,0.300,575.000,0.500,667.000,1.000,245.000,5.000,0
"04/02/08","16:09:31",26019.000,"cc",28318.961,6.00,6,0.100,23230.000,0.200,1332.000,0.300,566.000,0.500,649.000,1.000,242.000,5.000,0
"04/02/08","16:09:37",26475.000,"cc",28231.391,6.00,6,0.100,23439.000,0.200,1423.000,0.300,644.000,0.500,700.000,1.000,269.000,5.000,0
"04/02/08","16:09:43",26514.000,"cc",28359.432,6.00,6,0.100,23649.000,0.200,1379.000,0.300,617.000,0.500,654.000,1.000,215.000,5.000,0
"04/02/08","16:09:49",26299.000,"cc",28273.727,6.00,6,0.100,23534.000,0.200,1338.000,0.300,549.000,0.500,629.000,1.000,249.000,5.000,0
"04/02/08","16:09:55",26584.000,"cc",28268.330,6.00,6,0.100,23433.000,0.200,1516.000,0.300,668.000,0.500,683.000,1.000,284.000,5.000,0
"04/02/08","16:10:01",26864.000,"cc",28316.186,6.00,6,0.100,23640.000,0.200,1496.000,0.300,680.000,0.500,767.000,1.000,281.000,5.000,0
"04/02/08","16:10:07",26849.000,"cc",28406.795,6.00,6,0.100,23875.000,0.200,1419.000,0.300,638.000,0.500,654.000,1.000,263.000,5.000,0
"04/02/08","16:10:13",26491.000,"cc",28423.502,6.00,6,0.100,23699.000,0.200,1387.000,0.300,562.000,0.500,619.000,1.000,224.000,5.000,0
"04/02/08","16:10:19",26561.000,"cc",28322.178,6.00,6,0.100,23818.000,0.200,1324.000,0.300,553.000,0.500,632.000,1.000,234.000,5.000,0
"04/02/08","16:10:25",26918.000,"cc",28189.268,6.00,6,0.100,23953.000,0.200,1427.000,0.300,634.000,0.500,647.000,1.000,257.000,5.000,0
"04/02/08","16:10:31",27175.000,"cc",28375.117,6.00,6,0.100,24074.000,0.200,1504.000,0.300,647.000,0.500,668.000,1.000,282.000,5.000,0
"04/02/08","16:10:37",27127.000,"cc",28265.795,6.00,6,0.100,24122.000,0.200,1420.000,0.300,646.000,0.500,667.000,1.000,272.000,5.000,0
"04/02/08","16:10:43",26702.000,"cc",28315.115,6.00,6,0.100,23870.000,0.200,1331.000,0.300,609.000,0.500,644.000,1.000,248.000,5.000,0
"04/02/08","16:10:49",27131.000,"cc",28255.428,6.00,6,0.100,23952.000,0.200,1469.000,0.300,692.000,0.500,751.000,1.000,267.000,5.000,0
"04/02/08","16:10:55",27307.000,"cc",28277.369,6.00,6,0.100,24223.000,0.200,1412.000,0.300,677.000,0.500,734.000,1.000,261.000,5.000,0
"04/02/08","16:11:01",26786.000,"cc",28369.066,6.00,6,0.100,23729.000,0.200,1458.000,0.300,632.000,0.500,726.000,1.000,241.000,5.000,0
"04/02/08","16:11:07",26875.000,"cc",28309.922,6.00,6,0.100,23642.000,0.200,1451.000,0.300,705.000,0.500,783.000,1.000,294.000,5.000,0
"04/02/08","16:11:13",26495.000,"cc",28358.061,6.00,6,0.100,23575.000,0.200,1399.000,0.300,617.000,0.500,684.000,1.000,220.000,5.000,0
"04/02/08","16:11:19",26495.000,"cc",28378.397,6.00,6,0.100,23550.000,0.200,1391.000,0.300,645.000,0.500,661.000,1.000,248.000,5.000,0
"04/02/08","16:11:25",26089.000,"cc",28267.869,6.00,6,0.100,23149.000,0.200,1382.000,0.300,640.000,0.500,684.000,1.000,234.000,5.000,0
"04/02/08","16:11:31",26162.000,"cc",28286.207,6.00,6,0.100,23258.000,0.200,1372.000,0.300,640.000,0.500,664.000,1.000,228.000,5.000,0
"04/02/08","16:11:37",26038.000,"cc",28335.682,6.00,6,0.100,23058.000,0.200,1399.000,0.300,617.000,0.500,689.000,1.000,275.000,5.000,0
"04/02/08","16:11:43",25577.000,"cc",28293.500,6.00,6,0.100,22733.000,0.200,1331.000,0.300,576.000,0.500,692.000,1.000,245.000,5.000,0
"04/02/08","16:11:49",25955.000,"cc",28310.387,6.00,6,0.100,23008.000,0.200,1408.000,0.300,606.000,0.500,682.000,1.000,251.000,5.000,0
"04/02/08","16:11:55",25784.000,"cc",28328.402,6.00,6,0.100,22848.000,0.200,1360.000,0.300,660.000,0.500,646.000,1.000,270.000,5.000,0
"04/02/08","16:12:01",25743.000,"cc",28294.481,6.00,6,0.100,22713.000,0.200,1430.000,0.300,644.000,0.500,720.000,1.000,236.000,5.000,0
"04/02/08","16:12:07",26008.000,"cc",28288.604,6.00,6,0.100,23063.000,0.200,1396.000,0.300,617.000,0.500,671.000,1.000,261.000,5.000,0
"04/02/08","16:12:13",25898.000,"cc",28331.824,6.00,6,0.100,22952.000,0.200,1404.000,0.300,642.000,0.500,669.000,1.000,231.000,5.000,0
"04/02/08","16:12:19",26238.000,"cc",28267.445,6.00,6,0.100,23211.000,0.200,1414.000,0.300,688.000,0.500,677.000,1.000,248.000,5.000,0
"04/02/08","16:12:25",25739.000,"cc",28365.086,6.00,6,0.100,22841.000,0.200,1370.000,0.300,631.000,0.500,640.000,1.000,257.000,5.000,0
"04/02/08","16:12:31",26284.000,"cc",28311.543,6.00,6,0.100,23257.000,0.200,1422.000,0.300,627.000,0.500,709.000,1.000,269.000,5.000,0
"04/02/08","16:12:37",26017.000,"cc",28322.773,6.00,6,0.100,23115.000,0.200,1423.000,0.300,593.000,0.500,668.000,1.000,218.000,5.000,0
"04/02/08","16:12:43",25999.000,"cc",28298.191,6.00,6,0.100,22926.000,0.200,1400.000,0.300,722.000,0.500,687.000,1.000,264.000,5.000,0
"04/02/08","16:12:49",26498.000,"cc",28384.154,6.00,6,0.100,23249.000,0.200,1445.000,0.300,709.000,0.500,794.000,1.000,301.000,5.000,0
"04/02/08","16:12:55",25969.000,"cc",28343.629,6.00,6,0.100,22930.000,0.200,1388.000,0.300,650.000,0.500,751.000,1.000,250.000,5.000,0
"04/02/08","16:13:01",26078.000,"cc",28370.340,6.00,6,0.100,23281.000,0.200,1372.000,0.300,591.000,0.500,608.000,1.000,226.000,5.000,0
"04/02/08","16:13:07",25953.000,"cc",28326.754,6.00,6,0.100,23111.000,0.200,1382.000,0.300,601.000,0.500,625.000,1.000,234.000,5.000,0
"04/02/08","16:13:13",25861.000,"cc",28334.643,6.00,6,0.100,23216.000,0.200,1300.000,0.300,533.000,0.500,581.000,1.000,231.000,5.000,0
"04/02/08","16:13:19",26138.000,"cc",28287.645,6.00,6,0.100,23341.000,0.200,1374.000,0.300,576.000,0.500,623.000,1.000,224.000,5.000,0
"04/02/08","16:13:25",26172.000,"cc",28263.076,6.00,6,0.100,23270.000,0.200,1391.000,0.300,593.000,0.500,663.000,1.000,255.000,5.000,0
"04/02/08","16:13:31",25564.000,"cc",28410.316,6.00,6,0.100,22823.000,0.200,1314.000,0.300,549.000,0.500,642.000,1.000,236.000,5.000,0
"04/02/08","16:13:37",25003.000,"cc",28349.137,6.00,6,0.100,22499.000,0.200,1296.000,0.300,494.000,0.500,529.000,1.000,185.000,5.000,0
"04/02/08","16:13:43",25741.000,"cc",28278.307,6.00,6,0.100,22886.000,0.200,1424.000,0.300,581.000,0.500,611.000,1.000,239.000,5.000,0
"04/02/08","16:13:49",25224.000,"cc",28291.611,6.00,6,0.100,22498.000,0.200,1358.000,0.300,536.000,0.500,622.000,1.000,210.000,5.000,0
"04/02/08","16:13:55",25449.000,"cc",28212.176,6.00,6,0.100,22764.000,0.200,1311.000,0.300,573.000,0.500,563.000,1.000,238.000,5.000,0
"04/02/08","16:14:01",25560.000,"cc",28265.912,6.00,6,0.100,22750.000,0.200,1401.000,0.300,566.000,0.500,602.000,1.000,241.000,5.000,0
"04/02/08","16:14:07",25636.000,"cc",28317.582,6.00,6,0.100,22741.000,0.200,1340.000,0.300,646.000,0.500,691.000,1.000,218.000,5.000,0
"04/02/08","16:14:13",25035.000,"cc",28331.455,6.00,6,0.100,22224.000,0.200,1386.000,0.300,598.000,0.500,625.000,1.000,202.000,5.000,0
"04/02/08","16:14:19",25035.000,"cc",28370.781,6.00,6,0.100,22319.000,0.200,1348.000,0.300,566.000,0.500,577.000,1.000,225.000,5.000,0
"04/02/08","16:14:25",24840.000,"cc",28500.916,6.00,6,0.100,22355.000,0.200,1220.000,0.300,543.000,0.500,539.000,1.000,183.000,5.000,0
"04/02/08","16:14:31",24312.000,"cc",28394.803,6.00,6,0.100,21881.000,0.200,1209.000,0.300,521.000,0.500,523.000,1.000,178.000,5.000,0
"04/02/08","16:14:37",24770.000,"cc",28206.234,6.00,6,0.100,22151.000,0.200,1284.000,0.300,533.000,0.500,586.000,1.000,216.000,5.000,0
"04/02/08","16:14:43",25041.000,"cc",28273.816,6.00,6,0.100,22242.000,0.200,1361.000,0.300,539.000,0.500,652.000,1.000,247.000,5.000,0
"04/02/08","16:14:49",24711.000,"cc",28351.459,6.00,6,0.100,22263.000,0.200,1241.000,0.300,487.000,0.500,521.000,1.000,199.000,5.000,0
"04/02/08","16:14:55",25042.000,"cc",28305.137,6.00,6,0.100,22523.000,0.200,1272.000,0.300,492.000,0.500,572.000,1.000,183.000,5.000,0
"04/02/08","16:15:01",25152.000,"cc",28221.908,6.00,6,0.100,22455.000,0.200,1284.000,0.300,585.000,0.500,578.000,1.000,250.000,5.000,0
"04/02/08","16:15:07",24815.000,"cc",28294.701,6.00,6,0.100,22027.000,0.200,1294.000,0.300,605.000,0.500,673.000,1.000,216.000,5.000,0
"04/02/08","16:15:13",24707.000,"cc",28332.002,6.00,6,0.100,21955.000,0.200,1313.000,0.300,578.000,0.500,628.000,1.000,233.000,5.000,0
"04/02/08","16:15:19",24915.000,"cc",28398.100,6.00,6,0.100,22345.000,0.200,1269.000,0.300,536.000,0.500,566.000,1.000,199.000,5.000,0
"04/02/08","16:15:25",24095.000,"cc",28392.441,6.00,6,0.100,21841.000,0.200,1105.000,0.300,494.000,0.500,453.000,1.000,202.000,5.000,0
"04/02/08","16:15:31",24169.000,"cc",28295.643,6.00,6,0.100,21772.000,0.200,1170.000,0.300,546.000,0.500,483.000,1.000,198.000,5.000,0
"04/02/08","16:15:37",24018.000,"cc",28273.375,6.00,6,0.100,21702.000,0.200,1154.000,0.300,496.000,0.500,496.000,1.000,170.000,5.000,0
"04/02/08","16:15:43",24597.000,"cc",28276.510,6.00,6,0.100,22092.000,0.200,1241.000,0.300,513.000,0.500,566.000,1.000,185.000,5.000,0
"04/02/08","16:15:49",25352.000,"cc",28301.178,6.00,6,0.100,22890.000,0.200,1198.000,0.300,546.000,0.500,527.000,1.000,191.000,5.000,0
"04/02/08","16:15:55",24746.000,"cc",28306.932,6.00,6,0.100,22273.000,0.200,1170.000,0.300,539.000,0.500,545.000,1.000,219.000,5.000,0
"04/02/08","16:16:01",24622.000,"cc",28399.658,6.00,6,0.100,22098.000,0.200,1203.000,0.300,542.000,0.500,570.000,1.000,209.000,5.000,0
"04/02/08","16:16:07",24682.000,"cc",28277.553,6.00,6,0.100,22191.000,0.200,1238.000,0.300,509.000,0.500,556.000,1.000,188.000,5.000,0
"04/02/08","16:16:13",24540.000,"cc",28317.211,6.00,6,0.100,22087.000,0.200,1161.000,0.300,544.000,0.500,554.000,1.000,194.000,5.000,0
"04/02/08","16:16:19",24080.000,"cc",28240.209,6.00,6,0.100,21869.000,0.200,1163.000,0.300,462.000,0.500,439.000,1.000,147.000,5.000,0
"04/02/08","16:16:25",24541.000,"cc",28310.143,6.00,6,0.100,22176.000,0.200,1222.000,0.300,423.000,0.500,546.000,1.000,174.000,5.000,0
"04/02/08","16:16:31",24881.000,"cc",28250.865,6.00,6,0.100,22262.000,0.200,1274.000,0.300,542.000,0.500,595.000,1.000,208.000,5.000,0
"04/02/08","16:16:37",25110.000,"cc",28298.008,6.00,6,0.100,22470.000,0.200,1294.000,0.300,522.000,0.500,593.000,1.000,231.000,5.000,0